Station MNPV2 - 8639348 - Money Point, VA Image indicating link to RSS feed of recent meteorological observations for station MNPV2


Conditions at MNPV2 as of
(8:18 am EDT)
1218 GMT on 04/20/2024:
     

Click on the graph icon in the table below to see a time series plot of the last five days of that observation.

5-day plot - Wind Direction Wind Direction (WDIR): NW ( 310 deg true )
5-day plot - Wind Speed Wind Speed (WSPD): 1.0 kts
5-day plot - Wind Gust Wind Gust (GST): 1.9 kts
5-day plot - Atmospheric Pressure Atmospheric Pressure (PRES):30.00 in
5-day plot - Air Temperature Air Temperature (ATMP): 56.3 °F
5-day plot - Water Temperature Water Temperature (WTMP): 61.2 °F
5-day plot - Wind Speed at 10 Meters Wind Speed at 10 meters (WSPD10M): 1.9 kts
5-day plot - Wind Speed at 20 Meters Wind Speed at 20 meters (WSPD20M): 1.9 kts
5-day plot -  Wind Speed, Wind Gust and Atmospheric Pressure Combined plot of Wind Speed, Gust, and Air Pressure
NOS Water Level Observation Network Water Level
Previous observations
TIME
(EDT)
5-day plot - Wind Direction
WDIR
 
5-day plot - Wind Speed
WSPD
kts
5-day plot - Wind Gust
GST
kts
5-day plot - Wave Height
WVHT
ft
5-day plot - Dominant Wave Period
DPD
sec
5-day plot - Average Wave Period
APD
sec
5-day plot - Mean Wave Direction
MWD
 
5-day plot - Atmospheric Pressure
PRES
in
5-day plot - Pressure Tendency
PTDY
in
5-day plot - Air Temperature
ATMP
°F
5-day plot - Water Temperature
WTMP
°F
5-day plot - Dew Point
DEWP
°F
5-day plot - Salinity
SAL
psu
5-day plot - Visibility
VIS
nmi
5-day plot - Tide (above MLLW)
TIDE
ft
2024-04-20 08:12 am- 0.0 1.9----30.00- 56.3 61.2----
2024-04-20 08:06 amNNW 1.9 4.1----30.00- 56.1 61.2----
2024-04-20 08:00 am N 2.9 4.1----30.00+0.03 56.1 61.2----
2024-04-20 07:54 am- 0.0 1.9----30.00- 55.9 61.2----
2024-04-20 07:48 am W 1.0 1.9----30.00- 56.1 61.2----
2024-04-20 07:42 am- 0.0 1.0----29.99- 55.9 61.2----
2024-04-20 07:36 am- 0.0 1.0----29.99- 55.9 61.7----
2024-04-20 07:30 am- 0.0 1.0----29.99- 55.9 61.7----
2024-04-20 07:24 amESE 1.9 1.9----29.99- 55.8 61.7----
2024-04-20 07:18 am E 1.9 2.9----29.98- 55.8 61.7----
2024-04-20 07:12 am E 1.9 2.9----29.98- 55.8 61.7----
2024-04-20 07:06 amNNE 1.9 2.9----29.98- 55.8 61.7----
2024-04-20 07:00 amENE 1.0 2.9----29.98+0.01 55.8 61.9----
2024-04-20 06:54 am E 1.0 2.9----29.98- 55.6 61.9----
2024-04-20 06:48 am- 0.0 1.0----29.99- 55.6 61.9----
2024-04-20 06:42 am- 0.0 1.9----29.99- 55.6 61.9----
2024-04-20 06:36 am E 1.0 1.9----29.99- 55.6 61.9----
2024-04-20 06:30 am- 0.0 1.9----29.99-- 61.9----
2024-04-20 06:24 am- 0.0 1.0----30.00-- 61.9----
2024-04-20 06:18 am- 0.0 1.0----30.00- 55.0 61.9----
2024-04-20 06:12 am SW 1.0 1.9----30.00- 55.2 61.9----
2024-04-20 06:06 am- 0.0 1.0----30.00- 55.4 62.1----
2024-04-20 06:00 am- 0.0 1.0----29.99+0.01- 62.1----
2024-04-20 05:54 am- 0.0 1.9----29.99-- 62.1----
2024-04-20 05:48 am SE 1.0 2.9----29.99- 55.2 62.1----
2024-04-20 05:42 am SE 1.9 4.1----29.98- 55.2 62.1----
2024-04-20 05:36 am SE 1.9 2.9----29.98- 55.0 62.1----
2024-04-20 05:30 am- 0.0 1.9----29.98- 55.0 62.1----
2024-04-20 05:24 am- 0.0 2.9----29.98- 55.0 62.1----
2024-04-20 05:18 am E 2.9 2.9----29.98- 55.0 62.1----
2024-04-20 05:12 am E 1.9 2.9----29.98- 55.0 62.1----
2024-04-20 05:06 am E 1.9 2.9----29.98- 55.0 62.1----
2024-04-20 05:00 am E 1.0 2.9----29.97-0.03 55.0 62.1----
2024-04-20 04:54 amESE 1.9 4.1----29.97- 55.0 62.1----
2024-04-20 04:48 amESE 1.9 4.1----29.97- 55.0 62.1----
2024-04-20 04:42 amESE 1.9 2.9----29.97- 54.9 62.1----
2024-04-20 04:36 amESE 1.9 4.1----29.97- 54.9 62.1----
2024-04-20 04:30 am SE 1.9 4.1----29.98-- 62.1----
2024-04-20 04:24 amESE 1.9 2.9----29.98-- 62.1----
2024-04-20 04:18 amESE 1.9 4.1----29.98- 54.9 62.2----
2024-04-20 04:12 amESE 1.9 2.9----29.98- 55.0 62.2----
2024-04-20 04:06 am E 1.9 4.1----29.98- 55.0 62.2----
2024-04-20 04:00 am-------29.98-0.04- 62.2----
2024-04-20 03:54 am-------29.98-- 62.2----
2024-04-20 03:48 amESE 1.9 2.9----29.98- 54.9 62.2----
2024-04-20 03:42 am E 1.9 1.9----29.98- 54.9 62.2----
2024-04-20 03:36 am E 1.0 1.9----29.98- 55.0 62.2----
2024-04-20 03:30 am SE 1.9 2.9----29.98- 54.9 62.2----
2024-04-20 03:24 am SE 1.9 1.9----29.98- 54.9 62.2----
2024-04-20 03:18 amESE 1.0 1.9----29.98- 54.7 62.2----
2024-04-20 03:12 am- 0.0 1.9----29.98- 54.9 62.2----
2024-04-20 03:06 amSSE 1.9 2.9----29.98- 54.7 62.2----
2024-04-20 03:00 am SE 1.9 2.9----29.98-0.05 54.7 62.2----
2024-04-20 02:54 am SE 2.9 2.9----29.98- 54.7 62.2----
2024-04-20 02:48 am SE 1.9 2.9----29.99- 54.7 62.2----
2024-04-20 02:42 am SE 1.9 4.1----29.99- 54.5 62.2----
2024-04-20 02:36 amESE 1.9 4.1----29.99- 54.5 62.2----
2024-04-20 02:30 am SE 2.9 4.1----30.00- 54.5 62.2----
2024-04-20 02:24 am SE 2.9 5.1----30.00- 54.5 62.2----
2024-04-20 02:18 am SE 4.1 5.1----30.00- 54.5 62.2----
2024-04-20 02:12 am SE 1.9 2.9----30.00- 54.5 62.2----
2024-04-20 02:06 am SE 2.9 5.1----30.00- 54.3 62.2----
2024-04-20 02:00 am SE 2.9 5.1----30.00-0.02 54.3 62.2----
2024-04-20 01:54 amESE 2.9 4.1----30.00- 54.3 62.2----
2024-04-20 01:48 amESE 2.9 2.9----30.01- 54.1 62.2----
2024-04-20 01:42 amESE 1.9 2.9----30.01- 54.1 62.2----
2024-04-20 01:36 am SE 1.9 4.1----30.01- 54.3 62.2----
2024-04-20 01:30 am E 1.9 2.9----30.01- 54.1 62.2----
2024-04-20 01:24 amESE 1.9 2.9----30.01- 54.1 62.2----
2024-04-20 01:18 amESE 2.9 5.1----30.01- 54.1 62.2----
2024-04-20 01:12 am SE 2.9 4.1----30.01- 54.0 62.2----
2024-04-20 01:06 amESE 1.9 4.1----30.01- 54.0 62.2----
2024-04-20 01:00 am SE 2.9 5.1----30.02-0.02 54.1 62.2----
2024-04-20 12:54 am SE 2.9 4.1----30.02- 53.8 62.2----
2024-04-20 12:48 amSSE 1.9 5.1----30.02- 54.0 62.2----
2024-04-20 12:42 amSSE 2.9 4.1----30.02- 54.0 62.2----
2024-04-20 12:36 amESE 1.0 2.9----30.02- 53.6 62.2----
2024-04-20 12:30 am SE 1.9 5.1----30.03- 53.6 62.2----
2024-04-20 12:24 amSSE 2.9 5.1----30.03- 53.6 62.2----
2024-04-20 12:18 am SE 2.9 5.1----30.02- 53.6 62.2----
2024-04-20 12:12 am SE 4.1 5.1----30.02- 53.6 62.2----
2024-04-20 12:06 am SE 1.9 2.9----30.03- 53.4 62.2----
2024-04-20 12:00 am E 1.9 2.9----30.03+0.00 53.4 62.2----
2024-04-19 11:54 pm- 0.0 2.9----30.03- 53.2 62.2----
2024-04-19 11:48 pm SE 1.9 4.1----30.03- 53.2 62.2----
2024-04-19 11:42 pm SE 2.9 5.1----30.02- 53.2 62.2----
2024-04-19 11:36 pm SE 2.9 4.1----30.02- 53.2 62.2----
2024-04-19 11:30 pm SE 2.9 6.0----30.02- 53.2 62.2----
2024-04-19 11:24 pm SE 5.1 6.0----30.02- 53.1 62.1----
2024-04-19 11:18 pmESE 2.9 5.1----30.02- 53.2 62.1----
2024-04-19 11:12 pm SE 4.1 6.0----30.02- 53.2 62.1----
2024-04-19 11:06 pm SE 2.9 5.1----30.02- 53.2 62.1----
2024-04-19 11:00 pmESE 2.9 5.1----30.02-0.02 53.1 62.1----
2024-04-19 10:54 pmESE 2.9 8.0----30.03- 53.2 62.1----
2024-04-19 10:48 pm SE 5.1 8.9----30.03- 53.1 62.1----
2024-04-19 10:42 pm SE 7.0 8.0----30.03- 53.2 62.1----
2024-04-19 10:36 pm SE 6.0 9.9----30.03- 53.2 62.1----
2024-04-19 10:30 pm SE 6.0 8.9----30.03- 53.4 62.1----
2024-04-19 10:24 pm SE 5.1 7.0----30.03- 53.2 62.1----
2024-04-19 10:18 pmESE 4.1 7.0----30.03- 53.6 62.1----
2024-04-19 10:12 pmESE 4.1 8.0----30.03- 53.4 62.1----
2024-04-19 10:06 pmESE 5.1 7.0----30.03- 53.1 62.1----
2024-04-19 10:00 pmESE 4.1 5.1----30.04+0.01 53.2 62.2----
2024-04-19 09:54 pmESE 2.9 6.0----30.04- 53.4 62.2----
2024-04-19 09:48 pmESE 1.9 6.0----30.04- 53.4 62.2----
2024-04-19 09:42 pm E 4.1 5.1----30.04- 53.2 62.2----
2024-04-19 09:36 pm- 0.0 4.1----30.06- 53.2 62.2----
2024-04-19 09:30 pm E 2.9 6.0----30.05- 53.4 62.2----
2024-04-19 09:24 pmESE 4.1 6.0----30.05- 53.2 62.2----
2024-04-19 09:18 pmESE 4.1 8.0----30.05- 53.4 62.2----
2024-04-19 09:12 pm SE 6.0 8.9----30.04- 53.6 62.4----
2024-04-19 09:06 pmESE 5.1 8.0----30.04- 53.8 62.4----
2024-04-19 09:00 pmESE 6.0 8.0----30.03+0.01 53.6 62.4----
2024-04-19 08:54 pm SE 6.0 11.1----30.04- 53.8 62.4----
2024-04-19 08:48 pm SE 7.0 9.9----30.04- 54.1 62.4----
2024-04-19 08:42 pm SE 7.0 8.9----30.04- 54.1 62.4----
2024-04-19 08:36 pmESE 4.1 6.0----30.04- 54.3 62.4----
2024-04-19 08:30 pmESE 5.1 8.0----30.04- 54.3 62.6----
2024-04-19 08:24 pmESE 4.1 8.9----30.04- 54.3 62.6----
2024-04-19 08:18 pmESE 6.0 8.0----30.03- 54.1 62.6----
2024-04-19 08:12 pmESE 6.0 8.9----30.04- 54.1 62.6----
2024-04-19 08:06 pm E 5.1 8.9----30.04- 54.3 62.6----
2024-04-19 08:00 pm E 5.1 8.0----30.04+0.03 54.5 62.6----
2024-04-19 07:54 pm E 5.1 9.9----30.04- 54.3 62.6----
2024-04-19 07:48 pmESE 5.1 8.9----30.04- 54.5 62.6----
2024-04-19 07:42 pm E 5.1 8.9----30.03- 54.7 62.6----
2024-04-19 07:36 pmESE 6.0 8.9----30.03- 54.7 62.6----
2024-04-19 07:30 pm E 5.1 8.0----30.04- 55.0 62.6----
2024-04-19 07:24 pm E 5.1 8.9----30.03- 55.2 62.6----
2024-04-19 07:00 pmENE 2.9 8.0----30.03+0.01 56.3 62.6----
2024-04-19 06:54 pm E 5.1 8.9----30.03- 56.3 62.6----
2024-04-19 06:48 pm E 5.1 9.9----30.03- 56.3 62.6----
2024-04-19 06:42 pm E 5.1 8.9----30.02- 56.8 62.6----
2024-04-19 06:36 pmENE 2.9 8.0----30.02- 57.0 62.6----
2024-04-19 06:30 pm E 6.0 11.1----30.02- 57.4 62.6----
2024-04-19 06:24 pm E 7.0 11.1----30.02- 57.7 62.6----
2024-04-19 06:18 pm E 5.1 8.0----30.02- 58.5 62.6----
2024-04-19 06:12 pmENE 2.9 8.9----30.03- 58.8 62.6----
2024-04-19 06:06 pm E 7.0 9.9----30.02- 59.0 62.6----
2024-04-19 06:00 pm E 4.1 8.9----30.03+0.00 59.4 62.6----
2024-04-19 05:54 pm E 7.0 12.0----30.02- 59.5 62.6----
2024-04-19 05:48 pm E 6.0 8.9----30.02- 59.7 62.6----
2024-04-19 05:42 pm E 6.0 8.0----30.02- 60.4 62.6----
2024-04-19 05:36 pm E 5.1 8.9----30.03- 60.8 62.6----
2024-04-19 05:30 pmESE 5.1 8.9----30.02- 61.3 62.6----
2024-04-19 05:24 pm E 5.1 9.9----30.01- 61.0 62.8----
2024-04-19 05:18 pmESE 8.0 11.1----30.01- 61.2 62.8----
2024-04-19 05:12 pm E 5.1 8.0----30.02- 62.1 62.8----
2024-04-19 05:06 pm SE 6.0 8.0----30.01- 61.9 62.8----
2024-04-19 05:00 pmESE 5.1 8.0----30.01-0.04 61.7 62.8----
2024-04-19 04:54 pm E 5.1 8.0----30.02- 62.6 62.8----
2024-04-19 04:48 pm E 5.1 7.0----30.02- 63.0 62.8----
2024-04-19 04:42 pmESE 5.1 8.0----30.02- 62.8 62.8----
2024-04-19 04:36 pmESE 5.1 7.0----30.02- 63.0 62.8----
2024-04-19 04:30 pm E 5.1 8.9----30.02- 62.6 62.8----
2024-04-19 04:24 pm E 4.1 8.0----30.01- 63.3 62.8----
2024-04-19 04:18 pm SE 5.1 9.9----30.02- 62.8 62.8----
2024-04-19 04:12 pm E 2.9 8.9----30.02- 63.0 62.8----
2024-04-19 04:06 pm E 7.0 8.9----30.02- 62.4 62.8----
2024-04-19 04:00 pmESE 4.1 7.0----30.02-0.07 62.4 62.6----
2024-04-19 03:54 pm E 5.1 8.0----30.01- 62.6 62.6----
2024-04-19 03:48 pm E 5.1 8.0----30.01- 62.6 62.6----
2024-04-19 03:42 pm E 5.1 8.0----30.02- 62.1 62.4----
2024-04-19 03:36 pm E 6.0 8.0----30.02- 62.1 62.4----
2024-04-19 03:30 pm NE 2.9 8.0----30.02- 62.2 62.4----
2024-04-19 03:24 pm E 1.9 8.0----30.03- 61.9 62.2----
2024-04-19 03:18 pm SE 4.1 7.0----30.03- 61.5 62.2----
2024-04-19 03:12 pmESE 1.9 8.0----30.03- 61.3 62.2----
2024-04-19 03:06 pm E 6.0 11.1----30.03- 61.3 62.2----
2024-04-19 03:00 pm E 5.1 8.9----30.03-0.07 61.3 62.2----
2024-04-19 02:54 pmESE 4.1 9.9----30.03- 60.1 62.2----
2024-04-19 02:48 pmESE 5.1 8.0----30.04- 60.4 62.1----
2024-04-19 02:42 pmESE 4.1 7.0----30.05- 59.9 62.1----
2024-04-19 02:36 pmESE 5.1 8.9----30.05- 59.5 62.1----
2024-04-19 02:30 pmENE 2.9 7.0----30.05- 59.5 62.1----
2024-04-19 02:24 pmESE 6.0 8.9----30.05- 58.8 62.1----
2024-04-19 02:18 pm E 6.0 8.0----30.06- 59.0 62.1----
2024-04-19 02:12 pmESE 2.9 6.0----30.06- 58.5 62.1----
2024-04-19 02:06 pm E 5.1 6.0----30.06- 57.7 62.1----
2024-04-19 02:00 pmESE 4.1 6.0----30.06-0.06 57.6 62.1----
2024-04-19 01:54 pm SE 4.1 6.0----30.07- 57.2 62.1----
2024-04-19 01:48 pmESE 5.1 8.9----30.07- 56.5 62.1----
2024-04-19 01:42 pm SE 5.1 9.9----30.07- 57.2 62.1----
2024-04-19 01:36 pm E 7.0 9.9----30.07- 57.2 62.1----
2024-04-19 01:30 pmESE 6.0 9.9----30.07- 56.3 62.1----
2024-04-19 01:24 pmESE 6.0 9.9----30.07- 56.7 62.1----
2024-04-19 01:18 pm E 4.1 6.0----30.07- 57.0 62.1----
2024-04-19 01:12 pmESE 2.9 5.1----30.08- 56.1 62.1----
2024-04-19 01:06 pmESE 5.1 8.0----30.09- 55.9 62.1----
2024-04-19 01:00 pmESE 5.1 7.0----30.09-0.04 55.6 62.1----
2024-04-19 12:54 pm SE 4.1 7.0----30.09- 55.8 62.1----
2024-04-19 12:48 pmESE 5.1 8.0----30.09- 55.4 62.1----
2024-04-19 12:42 pm E 4.1 8.0----30.09- 56.1 62.1----
2024-04-19 12:36 pmENE 2.9 6.0----30.09- 55.2 62.1----
2024-04-19 12:30 pm- 0.0 7.0----30.10- 55.4 61.9----
2024-04-19 12:24 pmESE 5.1 8.0----30.10- 55.4 61.9----
2024-04-19 12:18 pmESE 5.1 7.0----30.10- 55.4 61.9----
2024-04-19 12:12 pmESE 4.1 6.0----30.10- 55.6 62.1----
2024-04-19 12:06 pm E 5.1 8.0----30.11- 54.9 62.1----
2024-04-19 12:00 pm E 4.1 6.0----30.11+0.00 55.0 62.1----
2024-04-19 11:54 amESE 1.9 6.0----30.11- 54.7 62.1----
2024-04-19 11:48 amESE 5.1 8.0----30.11- 54.3 62.1----
2024-04-19 11:42 am E 4.1 7.0----30.11- 54.5 62.1----
2024-04-19 11:36 am NE 1.9 7.0----30.11- 54.1 62.1----
2024-04-19 11:30 am E 5.1 8.0----30.11- 53.8 62.1----
2024-04-19 11:24 am E 4.1 7.0----30.11- 53.4 62.1----
2024-04-19 11:18 am E 5.1 8.0----30.11- 53.6 62.1----
2024-04-19 11:12 am E 5.1 8.0----30.11- 53.6 62.1----
2024-04-19 11:06 am E 4.1 8.0----30.12- 53.4 62.1----
2024-04-19 11:00 amNNE 2.9 7.0----30.12+0.01 53.1 62.1----
2024-04-19 10:54 amENE 1.9 6.0----30.12- 53.2 62.1----
2024-04-19 10:48 amENE 2.9 9.9----30.12- 52.9 62.1----
2024-04-19 10:42 am E 4.1 8.0----30.12- 53.1 62.1----
2024-04-19 10:36 amESE 4.1 8.0----30.12- 53.1 62.1----
2024-04-19 10:30 am E 4.1 5.1----30.13- 53.1 62.1----
2024-04-19 10:24 amENE 4.1 7.0----30.13- 52.9 62.1----
2024-04-19 10:18 am E 2.9 8.0----30.13- 53.1 62.1----
2024-04-19 10:12 am NE 2.9 8.9----30.13- 52.9 62.1----
2024-04-19 10:06 amNNE 5.1 8.9----30.13- 52.7 62.1----
2024-04-19 10:00 am NE 6.0 9.9----30.12+0.02 52.3 62.1----
2024-04-19 09:54 am NE 5.1 8.0----30.12- 52.3 62.1----
2024-04-19 09:48 am E 4.1 8.0----30.12- 52.9 62.1----
2024-04-19 09:42 am E 2.9 7.0----30.12- 52.7 62.1----
2024-04-19 09:36 am NE 5.1 8.9----30.12- 52.3 62.1----
2024-04-19 09:30 am NE 6.0 8.9----30.12- 52.2 62.1----
2024-04-19 09:24 am NE 5.1 9.9----30.12- 52.0 62.1----
2024-04-19 09:18 am NE 5.1 6.0----30.11- 51.8 62.1----
2024-04-19 09:12 am NE 2.9 8.0----30.11- 51.6 62.1----
2024-04-19 09:06 am E 5.1 8.0----30.11- 51.6 62.1----
2024-04-19 09:00 am E 4.1 7.0----30.11+0.02 51.6 62.1----
2024-04-19 08:54 amESE 6.0 8.9----30.11- 51.3 62.1----
2024-04-19 08:48 amESE 6.0 9.9----30.11- 51.3 62.2----
2024-04-19 08:42 am E 4.1 8.9----30.11- 50.9 62.2----
2024-04-19 08:36 am E 4.1 11.1----30.11- 50.7 62.4----
2024-04-19 08:30 am E 5.1 8.9----30.10- 51.3 62.4----
2024-04-19 08:24 amENE 4.1 8.9----30.10- 50.9 62.4----
2024-04-19 08:18 am E 5.1 8.9----30.10- 50.7 62.6----
2024-04-19 08:12 am E 5.1 8.0----30.10- 50.9 62.6----
2024-04-19 08:06 am NE 1.9 7.0----30.10- 50.7 62.6----
2024-04-19 08:00 am E 4.1 8.0----30.11+0.01 50.5 62.6----
2024-04-19 07:54 amNNE 6.0 8.0----30.11- 50.2 62.8----